RH
26 27 27 27 27 26 25 24 23 23 23 23 23 24 25 25 25 25 26 26 25 25 25 24 24 27 32 39 50 62 73 81 84 84 85 87 88 88 90 93 97 97
27 27 26 26 27 27 26 24 24 23 23 23 23 23 24 25 25 26 27 28 29 29 28 27 26 25 25 27 31 39 49 63 76 84 87 88 90 91 90 91 95 98
30 29 28 27 26 26 26 25 25 24 24 23 23 23 23 23 24 25 27 28 30 32 33 32 31 29 27 26 26 29 32 39 51 65 76 84 89 91 93 93 94 95
32 32 31 29 26 26 27 26 26 26 26 25 25 24 23 23 23 23 24 26 28 31 34 35 35 34 33 31 29 28 29 32 37 44 54 65 75 82 88 92 94 94
34 35 34 31 29 29 30 30 30 30 29 29 28 28 26 25 24 23 23 24 25 28 32 36 38 37 36 36 35 33 31 32 34 38 42 49 58 66 73 80 86 91
38 37 36 33 32 34 35 35 35 35 34 33 32 32 31 30 28 26 25 24 24 24 26 31 37 40 41 40 39 38 37 35 36 37 40 44 51 57 62 66 72 78
42 39 36 36 38 39 39 39 40 40 39 39 38 37 37 35 33 31 28 26 25 24 24 26 30 36 41 43 43 43 42 41 41 40 42 45 50 57 60 61 63 67
45 42 41 42 43 42 41 41 41 42 42 42 42 42 42 40 38 36 33 30 27 25 24 24 26 30 35 41 44 45 46 46 46 45 44 46 51 59 64 64 62 62
45 44 46 48 48 45 44 43 42 42 42 43 44 44 45 44 42 40 37 34 31 28 26 25 26 28 30 35 39 43 46 48 50 51 49 48 50 56 64 67 66 63
42 43 47 49 49 48 47 47 46 46 45 45 44 45 47 47 46 43 41 38 35 31 29 27 27 28 30 33 35 37 41 46 49 53 55 55 55 55 60 66 68 67
43 44 47 49 51 51 51 51 50 49 46 44 44 44 45 46 46 45 43 40 37 34 31 29 28 30 32 33 33 34 36 41 47 51 56 61 63 63 62 64 67 69
47 47 50 54 56 56 56 54 52 48 46 44 44 44 43 43 43 43 43 40 37 34 31 29 28 30 33 34 33 32 32 37 44 51 57 61 65 67 68 67 66 68
53 53 56 60 62 62 59 56 53 51 49 47 46 45 45 44 43 42 41 39 37 34 32 30 28 31 34 34 30 29 30 37 45 53 57 60 62 65 69 72 71 70
62 62 64 66 66 64 60 55 54 54 53 51 49 49 49 49 48 48 45 42 39 36 34 32 30 33 36 34 30 28 30 40 50 54 57 60 61 62 67 72 75 75
71 70 71 72 72 70 65 61 61 61 59 57 55 55 55 55 55 55 52 49 46 43 40 37 35 38 38 35 31 30 34 45 53 56 59 62 62 62 65 70 75 79
80 78 79 80 81 79 75 73 73 72 67 63 62 62 61 60 59 56 53 51 49 47 44 42 41 44 42 37 35 40 46 52 56 58 62 66 67 66 65 67 74 80
86 86 87 87 86 84 83 83 82 78 73 69 68 67 64 62 59 54 52 51 49 48 45 44 46 49 47 42 45 53 58 59 58 61 64 67 70 71 70 70 75 81
92 91 91 89 88 87 87 86 83 78 76 73 70 66 62 59 56 54 53 52 51 49 48 49 52 53 51 50 56 65 67 64 62 62 63 65 69 72 74 77 80 83
93 92 91 90 89 88 87 85 82 80 78 73 68 64 60 57 56 56 56 53 50 49 51 55 57 56 54 57 65 72 72 68 65 63 63 65 68 71 75 78 81 84
91 92 92 92 91 89 87 87 85 82 77 73 69 65 61 58 58 60 59 56 54 54 57 60 60 59 59 63 70 75 75 72 70 67 66 67 69 73 75 77 82 86
95 96 95 94 93 92 91 89 86 82 79 77 73 68 63 62 62 62 62 61 61 63 64 64 63 63 64 69 75 80 79 77 76 74 74 75 75 77 79 81 84 86
99 98 96 96 95 94 92 89 87 85 82 80 76 72 68 66 64 64 64 65 67 68 69 67 66 69 71 75 82 86 84 81 81 81 82 82 82 82 83 85 85 84
96 95 96 97 97 96 94 93 90 87 84 81 78 75 72 69 66 65 66 68 71 73 72 71 74 79 82 84 88 89 86 83 84 85 84 84 85 85 85 86 86 84
93 95 96 98 98 98 97 94 90 87 84 82 80 76 73 70 69 70 71 73 74 75 78 81 85 90 91 90 90 90 87 85 86 87 86 84 85 86 86 86 87 85
94 95 96 97 98 97 95 91 88 86 84 82 80 77 75 74 75 76 76 77 78 82 88 93 96 97 95 93 92 92 89 89 90 91 88 87 87 87 86 86 87 86
94 95 95 95 97 96 94 92 89 87 84 82 79 78 78 80 83 85 85 86 89 94 98 99 98 99 98 96 96 96 96 97 98 96 93 91 90 90 89 90 91 90